GFSNIL_sfc_thetae_081.txt.gz
Theta_e
317 317 316 315 317 317 317 318 320 319 319 320 320 318 318 318 318 317 316 315 314 315
317 317 316 316 317 317 317 317 319 319 318 318 319 319 318 317 317 318 317 316 315 316
317 316 316 314 313 313 313 315 316 317 317 318 318 319 319 318 318 317 318 317 315 315
318 318 317 314 311 312 311 313 315 317 318 317 318 318 318 318 318 316 317 316 315 315
319 319 317 315 313 311 311 312 314 315 317 318 317 317 317 317 317 315 315 315 315 315
317 318 318 317 317 315 311 311 313 314 315 316 316 316 316 317 317 316 316 316 315 315
314 315 317 318 318 318 317 314 312 312 314 314 315 316 316 316 315 315 315 315 316 315
314 315 315 315 316 317 318 318 316 315 314 314 314 314 315 316 315 314 313 313 313 313
315 315 315 315 315 315 315 316 316 317 317 315 315 304 300 307 314 314 313 312 313 313
313 316 314 314 314 314 314 315 315 315 315 316 317 302 301 299 313 314 313 313 313 312
303 304 307 310 316 315 315 315 315 316 317 316 316 296 298 297 310 314 314 314 314 313
296 296 298 300 300 303 305 311 316 317 316 311 298 289 290 292 306 311 313 315 315 303
291 290 290 292 293 296 300 297 294 288 287 287 287 287 289 290 295 304 306 291 288 287
286 287 287 288 290 290 291 289 287 284 283 284 285 286 288 289 289 287 287 285 284 284

GFSNIL_sfc_thetae_084.txt.gz
Theta_e
317 317 318 318 318 318 319 319 320 320 321 320 319 319 319 319 318 316 315 313 312 313
316 316 316 316 318 318 319 319 319 320 319 320 320 319 318 318 318 317 316 315 315 314
316 317 317 316 313 314 317 318 318 318 319 319 319 319 318 317 317 317 317 317 315 315
317 316 314 313 312 312 312 314 317 318 318 317 318 318 317 316 316 316 316 316 316 315
317 316 316 315 313 311 311 313 314 316 317 317 317 317 317 317 317 316 315 316 315 315
317 317 315 314 313 310 310 311 312 314 315 316 316 317 317 316 316 315 315 316 316 315
313 315 317 317 315 313 312 310 310 313 314 313 314 316 316 316 316 316 316 316 316 316
312 313 313 313 314 315 315 313 311 311 312 313 313 314 314 315 314 314 314 313 314 315
313 313 312 312 312 312 313 313 313 312 313 312 313 303 300 309 315 315 314 314 314 314
309 314 314 314 314 315 315 315 313 314 315 315 314 298 299 298 312 313 314 314 314 313
299 300 302 304 304 308 312 315 315 314 315 315 294 289 290 290 304 312 313 314 314 313
293 293 295 294 295 298 302 299 293 292 293 292 289 288 289 290 298 305 310 309 290 290
289 289 289 290 291 293 292 289 288 286 286 286 286 287 288 289 295 295 289 286 286 286
286 286 287 287 288 289 288 286 284 283 283 283 284 285 286 287 287 286 285 284 283 284

GFSNIL_sfc_thetae_087.txt.gz
Theta_e
321 321 320 320 319 320 318 317 318 317 317 319 320 319 319 319 320 318 320 319 320 320
320 320 320 321 320 320 321 320 318 317 316 316 315 317 319 318 318 318 321 321 321 320
318 319 320 319 319 319 319 321 320 320 318 317 316 315 317 318 319 319 318 318 317 316
317 318 318 319 320 319 318 319 319 319 319 319 318 316 315 314 317 317 317 317 316 316
319 317 317 318 318 319 321 322 321 320 318 318 318 319 317 315 316 317 317 317 317 316
318 318 317 317 317 316 318 320 320 321 321 320 318 317 318 318 318 317 316 317 316 316
319 320 319 318 317 316 317 318 320 320 321 321 321 321 319 318 318 318 318 318 320 320
320 322 321 321 321 320 318 317 318 319 320 321 321 320 321 320 318 318 318 319 320 322
319 320 320 320 320 321 320 319 318 317 318 318 316 303 301 311 317 318 318 318 320 320
309 309 310 314 316 317 318 319 317 317 316 315 307 290 292 295 316 317 317 317 316 315
298 298 299 300 302 305 304 300 302 299 303 294 290 289 289 289 304 309 313 305 297 298
293 293 293 294 295 297 294 291 290 289 290 289 287 288 289 292 301 302 292 289 288 288
289 290 289 290 290 290 289 287 286 285 285 286 285 287 288 291 296 290 286 285 285 285
287 287 288 288 288 288 287 285 284 283 283 284 284 285 286 287 287 285 283 282 282 283

GFSNIL_sfc_thetae_090.txt.gz
Theta_e
327 326 326 322 320 316 317 316 317 317 318 319 321 323 324 325 323 324 325 325 326 325
326 325 323 322 321 319 319 318 319 318 319 320 320 321 323 322 319 321 324 325 326 324
323 324 324 324 321 320 319 318 317 316 317 317 317 317 318 318 318 318 319 320 322 321
321 322 322 322 321 320 320 318 317 315 315 314 313 314 313 312 316 319 318 319 321 320
320 322 320 321 321 320 320 321 321 319 318 317 316 314 313 312 313 316 317 319 318 318
319 322 322 323 324 325 323 321 321 320 319 318 317 315 314 314 312 313 316 319 320 319
321 320 321 322 322 323 324 323 323 323 322 321 320 320 318 315 316 315 317 318 318 318
320 321 321 321 320 320 320 321 324 323 323 323 322 321 321 320 319 318 321 322 321 322
321 321 322 321 322 321 319 319 319 319 322 323 320 291 294 312 323 322 321 320 322 322
307 307 308 315 318 319 320 322 319 318 319 303 297 289 291 290 316 320 319 318 318 317
298 298 300 301 302 299 299 297 297 296 294 292 290 289 289 289 306 313 295 292 293 296
293 294 294 293 293 293 291 289 289 289 289 289 287 288 289 295 298 291 288 287 287 288
290 290 290 289 289 288 288 286 286 285 286 286 285 287 288 293 290 285 284 284 284 285
289 288 288 288 288 287 286 285 284 283 284 284 285 285 286 287 286 284 282 282 282 283

GFSNIL_sfc_thetae_093.txt.gz
Theta_e
330 327 328 328 326 322 319 320 322 323 323 323 323 323 325 326 328 328 327 325 325 325
327 327 327 326 323 320 319 317 318 320 321 322 323 323 323 323 323 325 326 326 327 324
325 326 327 325 320 318 319 318 317 318 318 319 321 322 321 321 323 324 326 325 324 323
323 325 326 325 322 318 318 318 317 318 318 318 319 320 321 322 321 320 320 319 318 319
323 323 323 323 321 320 317 317 317 316 316 315 314 315 315 314 315 314 314 316 318 318
322 322 321 321 323 321 319 318 317 316 315 314 313 313 313 312 312 313 313 315 318 317
323 323 323 324 324 322 323 320 320 320 319 318 316 315 314 313 312 313 314 316 318 319
323 323 324 323 323 324 324 323 323 322 322 321 319 317 315 315 314 313 313 315 319 320
322 321 321 322 322 321 322 322 323 322 323 322 301 291 292 308 317 316 318 315 318 321
309 309 310 315 315 314 317 318 312 310 302 296 294 290 291 291 313 316 310 307 306 314
300 300 300 301 299 297 296 296 296 295 294 293 290 289 290 291 306 295 292 291 293 294
293 293 293 291 291 291 290 288 288 288 288 288 288 289 291 297 294 289 287 287 287 287
289 289 288 288 287 287 287 286 285 284 285 286 285 288 289 290 288 284 283 284 284 285
288 288 287 287 287 286 285 285 284 283 283 283 284 286 287 287 285 284 283 282 282 284

GFSNIL_sfc_thetae_096.txt.gz
Theta_e
329 329 328 326 327 325 322 323 325 324 324 324 324 324 324 324 323 323 322 322 322 321
329 327 326 326 325 323 321 321 322 323 323 323 323 323 323 323 321 321 323 322 322 320
325 326 326 325 322 320 319 319 319 319 322 322 322 323 323 322 322 322 322 322 321 320
323 324 324 323 321 319 318 318 317 317 318 321 321 322 322 321 321 321 321 320 319 318
322 323 324 322 320 319 317 318 318 318 317 316 318 321 320 319 320 320 318 317 317 316
321 321 322 322 320 318 317 317 317 316 315 314 314 313 316 316 315 315 315 315 315 316
320 320 320 321 321 319 317 316 316 316 315 314 313 313 312 312 312 312 313 313 313 313
321 321 322 322 321 321 319 318 317 317 316 315 314 314 313 312 312 311 312 314 315 316
320 321 321 321 322 321 321 320 320 318 318 314 297 291 294 308 313 313 313 311 312 314
308 308 306 307 306 304 306 303 300 299 297 293 292 290 292 297 313 312 308 307 308 306
298 297 297 296 295 294 294 294 293 292 292 291 290 290 291 294 297 292 290 290 292 293
293 292 290 289 289 289 288 287 286 287 287 287 287 289 290 293 290 287 285 286 287 287
288 288 287 287 286 286 286 284 284 283 284 286 286 287 288 288 287 284 284 284 285 286
287 287 287 287 286 286 285 284 283 282 282 283 284 286 287 287 285 284 282 282 283 284

GFSNIL_sfc_thetae_099.txt.gz
Theta_e
329 329 327 324 324 323 323 323 323 324 326 326 326 325 325 325 324 323 322 321 321 320
329 327 325 325 324 321 319 321 323 325 324 324 324 324 324 324 323 323 322 321 321 321
324 325 324 323 319 317 317 319 319 322 323 323 323 323 323 322 323 322 322 321 321 321
322 323 323 321 318 318 318 317 317 318 319 321 322 322 322 322 322 321 321 321 320 320
322 322 322 320 317 318 317 317 317 317 318 319 321 321 321 320 321 319 319 320 319 319
321 321 320 319 318 318 317 317 317 317 315 315 317 320 320 321 320 320 320 320 319 319
319 320 320 319 318 317 317 316 316 316 315 315 314 315 318 318 318 318 318 317 317 317
319 320 319 319 318 318 317 316 317 316 314 314 313 310 314 315 315 314 313 314 315 315
318 320 319 320 319 318 317 316 316 315 315 303 298 291 295 307 312 312 312 311 313 315
303 303 304 304 302 301 299 298 297 296 296 293 293 291 293 296 312 311 310 309 311 310
294 294 294 294 293 292 291 290 290 290 290 290 290 291 292 292 294 290 289 290 292 294
289 288 288 287 287 288 287 286 286 286 287 287 288 289 290 290 288 286 286 286 288 288
287 287 286 286 285 285 285 284 284 284 285 286 286 288 288 288 286 284 284 285 285 287
284 286 287 286 286 285 284 284 283 282 283 284 285 286 287 286 285 283 283 283 283 285

GFSNIL_sfc_thetae_105.txt.gz
Theta_e
328 327 327 327 328 326 326 328 328 328 328 328 327 327 327 326 326 325 324 322 322 321
326 324 324 324 325 326 324 323 324 327 326 326 326 326 325 325 323 324 324 323 322 321
324 324 322 322 321 321 320 322 322 322 323 323 324 325 325 324 323 323 323 323 322 321
322 321 321 321 319 321 321 321 321 321 321 321 323 323 323 323 323 322 322 322 321 321
320 321 320 319 319 319 318 318 319 318 318 319 319 321 321 321 322 321 321 321 321 320
319 319 318 318 318 317 317 316 315 316 316 316 316 316 317 318 320 321 320 321 320 320
313 319 318 318 317 317 317 314 315 316 316 315 314 314 314 316 318 319 320 321 321 321
302 317 319 317 317 316 316 317 316 316 315 313 309 301 298 304 316 319 318 319 320 320
293 296 298 309 314 310 306 306 305 303 304 300 299 290 291 296 311 316 318 317 318 320
289 289 290 292 294 294 295 294 293 293 294 292 291 290 292 294 302 300 297 302 311 308
287 286 287 286 286 287 288 288 288 288 289 289 289 289 290 290 293 291 290 291 294 300
285 285 285 284 284 284 285 285 285 286 286 286 286 288 288 289 289 287 286 287 289 291
282 283 284 283 283 284 284 283 284 284 285 286 285 287 288 287 286 285 285 285 285 287
281 281 281 282 283 283 283 283 283 282 283 284 285 285 287 286 285 284 283 283 284 285

GFSNIL_sfc_thetae_108.txt.gz
Theta_e
329 327 327 328 329 329 327 329 329 329 329 329 329 328 328 327 326 326 325 324 323 323
329 327 326 327 327 329 327 325 325 327 328 328 328 327 326 326 325 325 325 324 323 323
326 325 324 324 324 325 325 324 325 325 326 325 326 326 325 325 325 324 324 324 323 322
324 324 324 323 323 323 321 321 322 323 323 322 323 323 323 324 323 322 322 322 322 321
321 322 321 321 320 320 320 320 319 320 320 320 320 321 321 321 322 322 321 321 321 321
309 320 319 319 319 319 319 319 318 318 318 318 317 317 317 317 317 319 321 321 321 321
298 308 318 318 318 318 318 316 316 316 315 315 314 314 312 310 312 315 317 318 320 321
293 296 300 310 316 316 315 316 316 316 315 311 306 298 297 303 305 310 313 317 319 320
290 290 291 292 294 295 296 297 300 300 301 297 297 290 291 293 308 307 303 309 317 319
287 286 287 288 288 288 288 289 289 290 292 291 290 289 291 291 299 297 296 296 299 306
284 285 285 285 285 285 286 285 286 286 287 288 288 288 290 290 292 291 289 290 293 295
282 282 283 283 284 284 284 284 284 284 285 285 286 288 288 289 289 287 286 287 288 289
282 282 281 282 283 284 284 283 283 283 283 284 283 286 287 287 286 284 285 285 285 287
280 281 282 282 282 282 283 283 283 282 283 283 283 283 285 285 284 283 282 282 282 284

GFSNIL_sfc_thetae_111.txt.gz
Theta_e
331 331 334 335 335 334 333 331 332 331 331 331 331 331 331 330 329 329 327 327 327 326
331 331 332 334 336 336 335 332 332 332 330 330 330 329 330 330 327 327 327 327 327 326
331 330 331 333 333 334 334 331 330 330 329 329 328 329 328 328 328 326 326 327 326 325
326 328 329 329 333 333 331 328 328 329 331 329 326 327 327 327 326 325 325 325 326 325
309 324 324 324 324 325 325 327 328 327 325 324 325 325 324 323 323 324 324 325 325 323
300 307 321 321 321 322 322 322 322 324 323 322 321 321 321 321 320 321 321 322 322 324
294 298 303 315 317 318 319 319 319 319 318 317 315 311 311 313 314 315 317 319 321 320
292 292 295 296 298 301 299 300 301 307 304 302 297 293 295 303 308 312 313 315 316 319
290 290 289 290 291 293 292 292 292 292 292 291 291 289 290 293 303 309 308 306 308 311
286 287 285 287 287 286 287 287 286 287 288 287 287 288 289 290 299 297 295 295 297 300
283 284 285 285 284 285 285 284 284 284 285 285 285 287 288 289 291 289 288 289 290 292
282 282 283 283 284 284 284 283 283 284 283 283 283 286 287 288 287 286 285 286 287 288
282 282 282 283 283 284 284 283 283 282 282 283 282 284 285 284 284 283 283 284 284 285
280 281 282 283 284 285 284 284 283 282 283 282 282 283 283 283 281 280 280 280 280 282

GFSNIL_sfc_thetae_114.txt.gz
Theta_e
317 327 332 334 334 336 334 333 334 334 334 334 335 334 334 332 331 332 332 334 334 333
316 329 333 335 338 337 336 333 334 334 332 332 333 333 332 330 330 331 331 333 335 333
313 322 335 333 333 334 338 337 336 334 334 331 331 332 331 330 330 329 330 331 330 330
310 330 334 332 333 336 337 336 334 335 332 330 329 330 330 330 329 327 329 329 328 328
302 309 329 330 332 334 332 333 332 331 328 327 327 329 328 326 326 327 326 326 325 326
297 300 304 319 324 324 324 325 325 326 326 327 326 326 325 324 325 325 325 324 325 326
293 295 297 300 303 304 310 316 312 309 302 300 299 300 305 313 317 318 319 322 325 325
291 291 292 293 295 297 297 298 298 295 294 294 292 292 295 304 311 313 316 320 320 320
287 288 289 288 290 289 291 290 290 289 290 290 291 290 291 296 306 305 302 302 301 305
284 285 285 286 285 285 286 287 287 287 287 287 288 289 290 292 294 292 291 291 291 294
283 283 284 284 284 284 284 284 284 284 284 284 286 287 288 288 289 288 287 286 286 288
284 283 283 283 284 284 283 283 283 283 283 283 284 286 286 286 286 285 284 284 285 285
284 284 283 284 284 284 285 284 283 282 283 283 282 284 284 284 283 281 281 282 282 283
283 283 284 284 284 284 284 284 284 284 284 283 283 283 283 283 280 280 280 279 279 281

GFSNIL_sfc_thetae_120.txt.gz
Theta_e
294 296 298 300 304 309 315 320 327 331 333 337 337 338 337 336 334 333 331 330 330 330
293 294 296 299 303 306 312 319 323 330 331 334 336 337 336 334 333 332 331 330 330 329
293 295 297 299 302 305 309 317 324 327 329 329 332 333 332 332 331 330 329 330 330 329
295 297 300 302 305 306 310 315 323 323 323 319 328 329 330 331 330 329 329 329 329 328
292 294 295 297 301 308 313 318 324 326 326 322 328 329 330 329 328 328 327 327 327 327
289 290 290 292 294 296 297 300 301 301 304 306 309 325 329 329 327 327 327 327 326 327
286 288 289 290 289 290 292 291 295 298 297 298 299 301 305 326 326 326 325 325 320 315
286 287 287 287 288 288 287 287 289 289 292 293 295 297 301 303 302 305 304 305 304 298
285 285 286 285 285 286 286 286 287 287 287 287 290 291 293 292 291 291 291 291 295 297
284 284 284 285 284 284 284 285 284 285 285 286 286 287 288 290 289 289 287 286 287 288
283 283 284 284 284 284 284 283 282 282 283 283 284 285 285 285 284 283 283 284 284 285
281 281 282 282 283 284 284 283 282 282 281 282 283 285 285 283 282 281 280 282 283 283
281 279 279 280 281 283 283 283 283 281 281 282 281 285 285 284 283 281 281 281 281 283
279 280 278 279 279 280 281 280 281 280 280 280 281 281 284 284 282 282 281 281 281 283

GFSNIL_sfc_thetae_123.txt.gz
Theta_e
289 290 291 293 295 296 298 301 305 309 315 324 329 331 333 333 330 325 326 329 331 330
289 290 291 293 295 296 299 301 303 307 312 318 325 328 329 331 330 329 327 328 330 329
291 293 294 296 296 297 299 301 302 304 307 314 321 326 326 327 329 329 329 329 328 328
290 292 293 294 297 298 301 302 305 305 308 313 320 323 321 324 326 327 329 329 328 327
289 290 291 291 293 295 297 303 307 309 310 315 313 315 315 316 319 313 326 326 327 326
287 287 288 289 290 291 292 293 295 296 296 297 299 301 306 312 316 324 327 327 326 326
285 286 286 287 287 288 289 289 288 290 290 290 291 294 299 310 322 323 323 317 315 309
284 286 286 286 286 286 286 287 287 286 287 288 288 289 291 295 297 298 299 298 294 294
283 284 285 285 284 284 284 284 284 285 285 284 285 287 287 287 287 289 290 290 289 290
281 281 282 284 284 282 282 282 281 283 283 283 284 286 286 286 284 284 285 285 286 287
278 278 280 281 281 283 281 280 280 280 281 282 284 286 285 285 284 283 283 283 283 284
277 276 277 277 279 279 280 279 278 278 279 279 282 285 285 284 283 282 282 283 284 283
277 276 275 276 276 278 277 277 277 276 277 280 278 284 285 284 283 281 282 283 283 285
277 276 275 275 275 276 276 276 275 275 275 276 278 279 283 284 282 281 281 281 281 283

GFSNIL_sfc_thetae_126.txt.gz
Theta_e
288 289 289 290 291 292 293 295 297 298 300 302 307 310 315 325 328 329 329 328 322 321
289 290 291 292 293 293 295 297 298 299 300 302 305 309 313 321 325 324 323 323 320 319
289 290 291 293 294 296 298 299 300 300 301 303 304 305 310 316 323 322 320 320 319 320
288 289 290 290 291 292 294 296 300 303 303 304 305 306 309 315 321 321 322 320 320 320
288 287 287 288 289 291 290 292 292 294 295 298 299 304 307 310 319 320 319 319 323 324
285 286 286 286 287 288 289 289 289 290 291 291 292 297 302 305 311 312 312 311 315 316
282 285 285 285 285 285 286 286 287 287 288 289 289 290 292 294 296 296 295 296 295 297
281 283 284 284 283 283 283 284 285 286 286 287 287 287 289 289 289 289 290 290 291 292
279 280 281 282 282 281 281 281 281 283 284 284 285 287 287 287 287 286 286 286 288 289
277 277 279 279 279 279 278 278 279 279 281 283 284 286 286 285 284 284 284 284 285 285
275 274 276 277 276 276 276 276 276 278 279 281 284 285 285 285 284 283 283 283 283 283
275 274 273 273 275 275 275 274 275 276 278 278 281 285 285 283 283 282 282 282 283 283
276 275 273 273 273 274 274 274 275 275 276 279 278 283 284 282 281 280 280 281 281 283
275 275 275 274 274 274 274 274 274 274 275 276 279 280 282 282 279 278 278 278 278 280

GFSNIL_sfc_thetae_129.txt.gz
Theta_e
288 288 289 291 292 292 292 293 295 296 297 297 299 300 303 306 309 316 324 326 327 326
288 288 289 290 292 293 295 296 297 298 299 299 300 301 303 303 306 314 321 324 324 324
286 288 289 289 289 291 293 294 295 297 297 300 301 302 303 303 305 309 315 322 321 319
284 287 287 287 288 289 290 290 291 293 294 300 302 305 305 305 306 308 315 321 321 318
283 286 285 285 286 287 288 289 289 290 291 291 294 298 302 307 310 312 315 320 317 316
281 283 283 283 284 284 285 286 287 287 288 288 289 291 295 298 301 298 298 299 300 300
278 280 282 282 281 282 283 283 285 286 286 287 287 288 290 291 292 292 293 294 294 292
277 279 279 280 279 280 280 281 282 284 285 285 286 286 286 287 287 288 288 289 290 292
276 276 277 277 277 277 278 278 280 281 282 283 284 286 286 285 284 284 284 285 286 288
274 273 274 275 275 275 275 277 278 279 281 281 283 285 285 284 283 282 282 282 283 284
274 272 272 273 273 273 274 275 276 277 278 280 282 284 284 283 281 281 281 281 281 281
274 273 272 271 272 273 273 274 275 276 277 277 279 283 282 281 280 279 278 279 281 280
275 274 273 272 272 273 273 273 274 275 276 278 276 281 281 279 278 277 277 277 278 281
273 274 274 273 273 273 274 274 273 273 274 275 276 277 279 279 276 275 275 274 274 277

GFSNIL_sfc_thetae_135.txt.gz
Theta_e
285 285 287 287 287 288 288 290 293 294 295 296 298 299 300 299 299 302 304 306 306 307
284 284 285 285 286 286 287 290 290 291 292 294 295 298 299 299 299 300 303 307 308 312
283 284 284 284 283 284 286 288 289 290 290 291 294 296 299 299 301 301 303 305 309 309
281 282 282 282 282 283 285 287 288 288 288 288 290 293 296 300 301 302 304 307 307 311
280 280 280 280 281 282 283 285 285 287 286 287 287 289 290 291 292 293 293 293 293 294
277 278 278 279 280 282 282 283 284 285 285 284 285 286 287 287 287 287 288 288 290 288
276 277 277 279 280 281 282 281 282 283 284 284 283 283 284 284 284 285 285 286 286 287
276 277 278 278 279 279 280 280 281 281 282 283 283 283 281 282 282 282 282 283 284 285
276 276 276 277 278 278 278 279 278 280 280 280 281 282 282 281 280 280 280 280 281 282
275 274 275 276 276 276 276 277 277 277 279 279 279 280 280 279 278 279 280 280 279 280
274 274 274 275 275 275 276 276 275 276 276 279 279 279 278 278 278 277 278 280 279 279
275 274 274 274 275 275 275 275 275 275 275 275 277 278 277 277 276 276 275 277 279 278
276 275 274 275 275 276 275 274 275 275 274 276 275 277 276 275 275 273 274 274 276 276
276 275 275 275 276 276 275 275 274 274 275 274 275 275 276 275 273 273 272 272 273 274

GFSNIL_sfc_thetae_138.txt.gz
Theta_e
287 286 286 286 287 287 288 289 290 291 292 293 295 297 298 299 300 300 300 301 304 306
286 285 285 286 286 287 288 289 289 290 290 291 293 295 297 297 298 300 300 301 304 308
285 285 285 285 285 286 287 288 287 288 289 290 291 292 296 300 299 300 301 302 304 308
284 284 284 284 285 285 286 285 286 287 286 287 288 289 291 292 296 295 295 295 296 298
283 283 283 283 284 285 284 285 285 286 285 284 285 286 287 287 288 288 289 289 290 291
281 281 281 282 283 283 283 284 285 284 284 283 283 284 284 285 285 286 286 287 287 287
280 280 281 282 282 282 282 282 283 284 284 283 282 282 283 282 282 283 284 284 285 286
279 280 281 281 282 282 281 281 282 282 282 283 282 282 282 283 281 282 282 282 282 284
279 278 279 280 280 280 281 281 280 281 281 280 281 281 281 282 282 281 280 281 282 282
277 277 278 279 279 279 278 279 279 280 281 280 279 280 280 280 281 280 280 279 280 281
277 277 277 278 278 278 279 278 278 278 279 280 279 278 279 279 280 279 279 278 279 279
278 277 277 277 278 279 279 278 278 278 277 278 278 277 278 280 280 278 277 277 277 277
279 278 278 279 278 279 280 279 279 278 277 276 277 277 277 278 279 277 277 277 276 275
279 278 279 279 280 280 279 279 279 279 278 277 276 276 276 275 276 276 276 275 275 275

GFSNIL_sfc_thetae_141.txt.gz
Theta_e
290 288 287 287 287 287 287 288 289 290 290 291 292 293 295 296 298 299 300 301 301 302
289 287 286 287 287 287 288 288 288 289 289 290 291 291 292 295 296 299 300 301 301 301
288 286 286 287 286 286 287 288 287 288 287 287 288 289 291 291 298 297 298 300 300 301
285 285 285 285 286 285 286 287 287 285 285 285 286 286 287 288 289 290 290 291 292 293
284 284 284 284 285 285 284 286 286 286 284 284 284 284 284 284 286 286 286 287 287 287
283 283 283 283 285 285 285 285 285 284 283 283 283 284 284 284 283 283 283 284 285 284
281 282 283 284 284 284 284 284 284 285 284 282 282 283 284 283 283 283 283 283 284 284
281 282 282 283 283 284 283 282 283 283 283 283 282 282 282 282 281 281 281 282 281 283
280 280 281 282 283 282 282 282 282 281 280 281 282 281 281 281 280 279 279 279 280 281
279 279 280 281 281 281 281 281 280 280 280 279 280 281 281 281 281 278 277 277 278 279
278 279 280 280 280 281 282 280 280 279 279 279 279 280 281 281 281 279 277 277 276 276
280 279 280 279 280 281 281 281 280 279 277 277 277 278 280 282 282 280 278 277 276 276
282 281 280 281 281 282 282 282 282 280 279 277 277 277 277 279 280 278 277 277 277 276
281 281 281 281 282 282 282 282 282 281 281 280 278 278 277 277 278 277 276 276 276 277

GFSNIL_sfc_thetae_144.txt.gz
Theta_e
289 288 287 286 286 286 286 287 288 288 288 288 289 290 291 292 293 295 296 296 299 300
288 286 285 286 286 286 286 287 288 287 286 287 287 288 290 290 290 293 295 297 299 299
285 285 286 286 285 284 285 286 286 286 285 285 286 286 287 288 288 289 290 292 293 293
284 285 285 285 285 285 285 285 285 285 284 284 285 285 285 285 285 285 286 287 287 287
284 284 284 284 284 284 284 286 285 284 283 283 283 284 283 284 284 283 283 284 284 284
282 282 283 283 284 283 283 283 283 283 282 281 282 282 282 283 283 282 282 282 284 283
281 282 282 283 283 283 282 281 281 281 281 282 281 281 281 280 280 280 281 281 281 283
280 281 282 283 282 282 281 280 281 279 279 280 281 281 279 279 277 277 277 278 279 281
279 280 280 281 282 281 280 279 278 278 277 277 281 282 281 279 276 276 275 275 276 278
277 277 278 281 280 280 278 278 277 276 276 276 278 282 282 280 277 275 274 274 275 276
276 276 277 278 279 278 279 277 276 275 275 275 277 281 282 280 276 275 274 274 274 274
279 276 277 276 277 279 279 278 277 276 275 274 275 279 280 279 276 275 273 274 275 274
281 280 280 279 277 279 281 279 280 278 276 277 275 279 279 277 276 273 274 274 274 278
281 281 281 281 282 282 281 281 280 279 278 277 277 276 279 278 275 274 273 273 273 275